Flag for United Kingdom Weather past 2 weeks in Rotherham, England, United Kingdom

Now
61 °F

Cool.


Feels Like: 61 °F
Forecast: 51 / 68 °F
Wind: 6 mph from West

Location: Nottingham Weather Centre

Current Time: Sep 1, 2014 at 12:17:51 PM

Latest Report: Sep 1, 2014 at 11:00 AM


Visibility: 12 mi

Pressure: 30.10 "Hg

Humidity: 100%

Dew point: 61 °F

Location of RotherhamLocation

Historic Weather in Rotherham — Graph

°F

Rotherham temperature yesterday

Maximum temperature yesterday: 66 °F (at 3:00 PM)
Minimum temperature yesterday: 52 °F (at 7:00 AM)
Average temperature yesterday: 60 °F

Past Weeks' High & Low Weather Summary

 TemperatureHumidityPressure
High68 °F (Aug 28, 3:00 PM)100% (Aug 18, 4:00 AM)30.10 "Hg (Aug 18, 4:00 AM)
Low44 °F (Aug 24, 6:00 AM)45% (Aug 19, 4:00 PM)29.60 "Hg (Aug 25, 11:00 PM)
Average56 °F82%29.89 "Hg
* Reported Aug 17 11:00 AM — Sep 1 11:00 AM, Rotherham, Weather by CustomWeather, © 2014

Note: Actual official high and low records may vary slightly from our data, if they occured in-between our weather recording intervals... More about our weather records

Advertising

Rotherham weather history for previous 24 hours

 ConditionsComfort  
Time TempWeatherWind HumidityBarometerVisibility
11:00 AM
Sep 1
61 °FCool.6 mph100%30.10 "Hg12 mi
10:00 AM60 °FFog.7 mph100%30.09 "Hg5 mi
9:00 AM58 °FCool.5 mph100%30.09 "Hg7 mi
8:00 AM57 °FCool.5 mph100%30.08 "Hg6 mi
7:00 AM57 °FFog.3 mph99%30.07 "Hg2 mi
6:00 AM56 °FCool.3 mph96%30.06 "Hg11 mi
5:00 AM56 °FCool.2 mph94%30.07 "Hg11 mi
4:00 AM56 °FCool.6 mph89%30.08 "Hg12 mi
3:00 AM55 °FCool.3 mph90%30.09 "Hg17 mi
2:00 AM55 °FCool.2 mph91%30.09 "Hg17 mi
1:00 AM56 °FCool.5 mph87%30.09 "Hg17 mi
12:00 AM57 °FCool.7 mph85%30.09 "Hg18 mi
11:00 PM
Aug 31
57 °FCool.3 mph82%30.10 "Hg16 mi
10:00 PM57 °FCool.3 mph86%30.09 "Hg14 mi
9:00 PM57 °FSmoke.1 mph86%30.09 "Hg6 mi
8:00 PM62 °FCool.2 mph66%30.07 "Hg19 mi
7:00 PM66 °FMild.5 mph58%30.06 "Hg19 mi
6:00 PM66 °FMild.8 mph55%30.06 "Hg19 mi
5:00 PM65 °FMild.7 mph58%30.06 "Hg22 mi
4:00 PM66 °FMild.8 mph59%30.06 "Hg22 mi
3:00 PM66 °FMild.9 mph58%30.06 "Hg22 mi
2:00 PM65 °FMild.9 mph68%30.06 "Hg17 mi
1:00 PM65 °FMild.9 mph64%30.05 "Hg22 mi
Weather by CustomWeather, © 2014

See weather overviewHow to use our weather pages